Tracking 19854 objects as of 23-Sep-2019
HD Live streaming from Space Station
objects crossing your sky now

THORAD AGENA D DEB

Track THORAD AGENA D DEB now!
10-day predictions


NORAD ID: 5165
Int'l Code: 1970-025JY
Perigee: 573.5 km
Apogee: 593.6 km
Inclination: 99.7 °
Period: 96.2 minutes
Semi major axis: 6954 km
RCS: 0.0499 m2 (small)
Launch date: April 8, 1970
Source: United States (US)
Launch site: AIR FORCE WESTERN TEST RANGE (AFWTR)

Note: This is SATELLITE DEBRIS
aabbcc
Your satellite tracking list
Your tracking list is empty




NASA's NSSDC Master Catalog

Two Line Element Set (TLE):
1  5165U 70025JY  19266.07222043  .00004411  00000-0  39060-3 0  9996
2  5165  99.6950 192.2906 0014390  22.8221 337.3631 14.96921849550739
Source of the keplerian elements: AFSPC